Terug naar catalogus

STARLINK-37682

ActiefCommunicatieVLEO
NORAD 69209·PAYLOAD·🇺🇸 United States

Gelanceerd May 25, 2026 vanaf Cape Canaveral Space Force Station

Loading…

Volgende Passages (komende 24 uur)

TLE

VersSource: CelesTrak SupGP

Epoch: Sep 15, 2026, 04:06 UTC

1 69209C 26114AD  26258.17131944  .00036064  00000+0  10656-2 0  2589
2 69209  53.1560 138.3309 0001200  86.7724 216.8917 15.34370931    13

Volg STARLINK-37682 in realtime met AllMySat

Download on the App Store